Orbital Elements at Epoch 2459200.5 (2020-Dec-17.0) TDB
Reference: JPL 30 (heliocentric ecliptic J2000)
Element | Value | Uncertainty (1-sigma) | Units |
e | .2032911224748655 | 3.2078e-08 | |
a | 3.162430300656503 | 2.0385e-08 | au |
q | 2.519536295087516 | 1.0187e-07 | au |
i | 2.259331933895716 | 4.6433e-06 | deg |
node | 139.6002717600667 | 0.00010017 | deg |
peri | 118.7483022370195 | 0.00010087 | deg |
M | 249.0190992207603 | 1.2976e-05 | deg |
tp | 2459833.750607859017 (2022-Sep-11.25060786) | 7.6918e-05 | TDB |
period | 2054.139200786616 5.62 | 1.9861e-05 5.438e-08 | d yr |
n | .1752558930096562 | 1.6945e-09 | deg/d |
Q | 3.80532430622549 | 2.4529e-08 | au |
|
| | Orbit Determination Parameters
Additional Information
|